Temperature
19 17 17 18 18 19 20 19 18 18 18 17 16 16 16 15 16 15 15 14 14 14 14 14 14 14 14 14 15 15 15 15 15 15 15 15 15 15 14 14 14 14 14 14
17 18 19 19 19 19 19 19 18 18 18 17 16 16 15 15 15 15 14 14 14 13 13 13 14 14 14 14 14 14 14 14 14 14 14 14 14 14 14 14 14 14 14 13
19 19 20 20 20 20 19 19 18 17 17 16 17 16 15 15 15 15 14 14 14 14 13 13 13 13 13 13 14 14 13 14 14 14 14 14 14 13 13 13 13 13 13 13
19 19 20 20 20 20 19 19 19 18 16 15 16 16 15 15 15 15 14 14 13 13 13 13 13 12 13 13 13 13 13 13 13 13 13 13 13 13 13 12 12 12 12 12
20 20 20 21 21 20 19 18 18 17 16 15 15 15 15 15 15 15 14 13 13 13 13 12 12 12 12 12 12 12 12 12 12 12 12 12 12 12 12 12 12 12 12 12
19 20 20 21 20 20 19 18 16 15 15 16 16 15 15 14 15 15 14 13 12 12 12 12 12 11 11 12 12 12 12 12 12 12 12 12 12 11 11 11 11 11 11 11
19 20 20 20 20 19 18 17 16 17 15 15 15 15 15 15 15 15 14 13 12 12 12 12 11 11 11 11 11 11 11 11 11 11 11 11 11 11 11 10 10 10 10 10
19 19 19 19 20 19 18 17 16 17 16 15 15 15 15 14 14 14 14 12 12 11 12 12 11 11 11 11 11 11 11 11 11 11 10 10 10 10 10 10 10 10 9 9
18 19 20 19 19 19 18 16 16 14 15 14 14 15 15 14 13 13 12 12 11 11 11 11 11 11 10 10 10 10 10 10 10 10 10 10 10 9 9 9 9 9 9 9
19 19 19 19 19 17 17 14 14 14 15 15 16 15 14 14 13 12 12 11 11 11 11 10 10 10 10 10 10 9 9 9 9 9 9 9 9 9 8 8 8 8 8 8
18 17 18 18 17 17 17 15 13 12 14 14 15 15 15 14 13 12 12 11 10 10 10 10 10 10 9 9 9 9 9 9 9 9 9 8 8 8 8 8 8 8 8 8
16 15 15 17 17 17 17 16 14 15 14 13 13 14 14 13 13 12 11 11 10 10 10 10 10 9 9 9 9 9 8 8 8 8 8 8 8 8 8 8 7 7 7 7
15 14 15 16 16 16 16 16 14 13 12 12 13 14 13 12 12 11 11 10 10 10 10 10 9 9 9 9 8 8 8 8 8 8 8 7 7 7 7 7 7 7 7 7
15 13 14 16 16 16 16 16 15 14 13 13 14 14 13 12 11 10 10 10 10 10 10 9 9 9 9 8 8 8 8 8 8 7 7 7 7 7 7 7 7 7 7 7
14 14 15 15 16 16 16 16 15 15 14 14 14 14 13 12 11 10 10 10 10 9 9 9 9 9 8 8 8 8 8 8 7 7 7 7 7 7 7 7 7 7 7 7
13 14 15 15 16 16 16 15 15 15 14 14 14 13 12 11 11 10 10 10 9 9 9 9 9 9 8 8 8 8 8 7 7 7 7 7 7 7 7 7 7 7 6 6
12 13 14 14 15 16 15 15 15 15 14 14 14 13 11 11 10 10 10 10 10 9 9 9 9 9 8 8 8 8 7 7 7 7 7 7 7 7 7 6 6 6 6 6
12 12 11 13 15 15 15 15 15 14 13 13 12 11 11 11 10 10 11 10 10 10 10 9 9 9 8 8 8 8 7 7 7 7 7 7 7 6 6 6 6 6 6 6
12 12 12 12 13 14 15 15 14 14 14 12 11 11 10 10 10 10 10 10 10 10 10 9 9 9 8 8 8 7 7 7 7 7 6 6 6 6 6 6 6 6 6 6
11 11 11 12 14 14 14 15 15 14 13 12 11 10 10 10 10 9 10 10 10 10 9 9 9 8 8 8 7 7 7 7 7 6 6 6 6 6 6 6 6 6 6 6
12 12 12 12 13 13 14 14 15 14 13 12 12 11 10 10 10 11 10 10 10 9 9 9 8 8 8 7 7 7 7 7 6 6 6 6 6 6 6 6 6 6 6 6
12 12 12 11 13 13 14 14 13 13 13 13 12 12 11 11 11 11 10 10 9 9 9 8 8 8 7 7 7 7 7 6 6 6 6 6 6 6 6 6 6 6 6 6
12 12 11 11 12 13 13 14 14 14 14 13 13 12 12 11 11 10 10 10 9 9 9 8 8 8 7 7 7 7 7 6 6 6 6 6 6 6 6 6 6 6 6 6
12 11 11 12 12 13 14 14 14 14 14 14 13 13 12 11 11 10 10 10 9 9 9 8 8 8 7 7 7 7 7 6 6 6 6 6 6 6 6 6 6 6 6 6
12 12 11 12 12 13 14 14 14 14 14 13 13 13 12 12 11 10 10 10 9 9 8 8 8 8 7 7 7 7 7 7 7 7 6 6 6 6 6 6 6 6 6 6
12 12 12 12 13 13 14 14 14 14 14 13 13 12 12 12 11 11 10 10 9 9 8 8 8 8 7 7 7 7 7 7 7 7 7 7 7 7 7 7 7 7 7 7
Wind_Speed
3 5 1 5 6 5 4 3 1 1 1 4 6 8 7 7 8 9 8 8 9 8 7 7 7 7 7 7 7 7 6 5 4 2 2 2 2 2 3 5 7 7 7 7
5 2 6 4 5 4 4 3 1 2 4 4 7 7 5 4 6 8 9 8 9 8 7 6 7 7 6 6 6 7 6 6 5 3 1 1 1 2 2 4 7 8 8 7
3 5 2 3 3 3 2 5 5 5 5 6 7 4 1 1 3 6 7 8 8 9 8 6 6 7 6 6 7 6 7 7 7 5 3 3 3 3 3 4 4 7 8 7
3 5 1 1 2 5 2 3 7 7 6 2 3 3 4 4 5 7 8 8 8 8 8 6 6 6 5 5 5 6 7 7 7 6 5 5 4 3 3 3 3 6 8 8
3 2 1 0 2 5 3 4 6 6 6 4 3 4 4 3 6 9 8 8 8 8 8 7 6 6 5 5 5 6 6 7 7 6 6 5 5 3 3 3 5 6 7 8
4 2 0 1 2 4 6 8 8 6 5 2 1 3 4 5 7 8 9 9 9 10 9 8 6 5 5 5 5 5 6 7 6 6 6 6 6 5 5 6 6 5 5 5
5 5 4 2 4 5 6 6 4 5 4 3 1 2 5 3 4 8 11 11 10 10 10 8 7 5 4 5 5 5 6 6 6 7 7 6 6 5 5 4 5 5 5 5
3 4 5 4 2 3 2 6 7 5 4 3 2 3 4 1 1 5 9 11 11 10 9 8 7 6 4 4 5 5 5 5 5 6 6 6 5 4 3 4 4 4 4 4
3 2 4 3 3 5 4 3 4 6 3 1 3 4 3 3 5 7 10 11 11 10 9 8 6 5 4 4 4 4 5 5 5 5 5 5 5 5 5 5 4 4 4 4
4 1 3 4 5 7 5 7 5 5 4 1 3 3 3 4 6 7 9 10 10 10 8 7 6 5 4 4 5 5 5 5 4 5 5 5 5 5 5 5 6 6 6 6
3 3 4 5 4 2 3 4 5 4 4 5 3 5 2 6 8 10 10 10 10 10 9 7 6 4 4 4 5 5 5 5 5 5 5 6 6 6 6 6 6 5 5 6
3 5 2 2 3 1 3 4 5 4 2 3 3 5 4 2 5 9 9 9 9 9 8 7 6 5 4 4 4 4 4 4 4 4 5 5 5 6 6 6 6 6 6 6
5 5 3 4 5 5 4 2 3 5 4 4 3 4 2 4 6 7 10 10 9 9 9 7 6 5 4 4 4 4 4 4 4 4 5 5 5 6 6 6 6 6 6 6
5 5 5 5 4 2 2 1 2 4 3 3 5 4 0 3 5 6 8 9 9 9 9 7 6 5 4 4 4 4 4 4 4 4 4 5 5 5 4 5 6 6 6 6
5 4 2 1 1 1 1 2 1 3 4 5 4 4 3 5 6 7 8 9 10 9 9 8 7 5 5 4 4 4 4 3 4 4 4 4 4 4 5 5 6 6 6 6
5 4 3 2 2 3 3 5 3 1 1 1 1 1 1 5 6 6 8 9 9 9 9 8 7 7 6 5 4 3 3 3 3 4 3 3 4 4 5 5 5 6 6 6
3 4 3 1 3 2 3 4 2 1 1 2 3 2 4 5 6 7 7 8 8 8 8 8 7 7 6 5 4 4 3 3 3 3 3 3 3 4 4 5 5 6 6 6
5 4 3 1 3 0 3 1 1 1 2 1 1 3 5 5 5 4 5 7 8 7 7 7 7 6 5 4 4 4 4 4 3 3 3 3 3 4 4 5 5 5 4 5
4 6 4 3 1 2 3 1 0 1 2 1 4 5 5 7 5 2 3 6 7 7 7 7 7 6 6 5 5 5 4 4 3 2 2 2 3 3 4 4 4 4 4 5
6 5 5 3 2 2 3 3 1 3 2 1 5 7 7 6 3 3 5 6 6 7 7 7 7 6 6 5 6 6 5 4 3 1 1 2 2 3 3 3 3 3 3 4
4 4 4 3 1 4 4 3 2 1 5 2 6 7 7 4 3 5 8 7 7 7 8 8 8 7 6 6 6 6 4 2 1 2 3 3 3 3 2 2 2 3 3 4
3 3 2 3 1 4 3 2 2 4 1 4 5 6 6 5 6 8 9 9 9 8 8 8 7 6 5 6 7 6 3 1 2 3 4 4 3 3 3 3 3 3 4 4
2 4 5 5 4 4 3 1 1 2 3 3 5 5 8 8 7 7 8 9 8 8 8 7 7 7 5 5 6 6 3 2 4 4 4 3 4 4 3 3 3 3 3 3
1 2 3 1 2 2 2 1 2 2 2 4 6 7 8 8 9 9 9 8 8 7 7 7 7 7 5 4 4 4 3 3 5 4 3 3 3 3 4 3 2 2 2 2
2 2 2 0 1 1 3 1 2 3 5 6 7 6 8 10 9 8 8 8 8 6 6 6 7 7 6 4 3 3 4 5 5 4 3 3 3 2 2 2 1 1 1 1
2 5 5 5 5 4 3 2 3 5 5 6 7 6 6 8 9 8 8 7 7 7 6 6 6 6 6 5 3 3 3 5 5 3 2 2 1 1 1 1 2 2 1 2
Wind_Direction
69 76 192 219 192 176 150 146 194 274 128 99 120 131 143 145 145 145 145 139 131 118 104 94 84 72 61 43 42 43 40 38 44 45 47 51 44 23 28 31 26 21 20 20
41 311 240 200 170 156 150 137 136 42 56 102 115 109 123 143 166 163 157 149 139 129 119 108 91 75 63 55 44 45 40 38 37 40 48 72 76 48 43 28 29 24 21 19
190 248 234 159 162 159 193 183 180 151 78 73 105 75 119 147 143 148 149 146 142 143 138 120 95 77 64 51 42 44 37 33 30 31 42 46 47 40 29 18 15 11 15 18
248 273 270 161 207 160 259 216 161 143 121 125 131 161 231 191 178 175 163 153 148 140 132 119 104 89 77 65 52 47 45 39 31 34 47 56 56 40 13 3 8 10 15 18
292 296 27 25 259 160 165 84 101 107 111 88 43 132 253 180 205 198 178 160 145 135 131 124 113 105 89 72 61 49 48 46 38 41 47 61 60 48 27 22 23 18 13 17
277 297 238 239 24 106 123 76 60 53 73 76 278 155 241 211 214 189 171 160 146 136 128 120 113 101 84 68 60 51 53 47 40 47 50 58 59 49 41 29 19 12 6 8
355 357 353 29 67 38 83 91 45 15 20 252 281 174 246 247 214 186 171 161 148 140 134 131 125 109 93 79 67 59 60 52 39 46 47 47 49 47 42 29 19 13 8 3
53 344 339 359 117 143 100 127 151 184 208 266 337 235 263 349 99 138 144 144 141 138 136 135 127 116 106 90 79 71 65 56 44 45 42 39 40 40 32 28 24 16 6 358
131 289 326 7 29 114 108 95 138 125 122 77 283 281 306 86 95 119 133 142 147 147 142 134 125 115 107 97 89 86 78 62 48 44 43 40 39 38 30 26 25 20 7 8
142 174 330 331 48 36 98 133 94 108 138 217 279 263 238 207 177 162 157 158 153 148 137 129 127 122 115 107 89 78 76 66 50 43 39 42 36 37 33 36 32 22 12 14
103 121 344 28 41 19 64 73 92 100 137 152 231 269 253 211 186 176 170 160 154 151 144 139 133 125 116 105 97 87 77 67 55 47 42 43 34 34 37 35 27 21 17 14
100 108 50 327 319 346 104 127 137 139 188 161 176 263 340 237 170 158 154 150 148 147 145 139 134 127 117 109 101 90 79 70 58 53 49 46 39 37 38 29 20 21 22 20
116 99 70 1 351 4 43 74 110 115 114 148 171 257 33 79 110 137 145 148 148 146 142 136 132 129 121 108 95 85 75 68 58 59 56 47 42 44 36 24 19 24 25 22
105 90 141 178 218 257 340 27 122 117 137 191 216 229 195 118 130 139 144 146 146 146 145 142 137 130 120 110 100 89 75 71 73 68 61 51 43 42 36 31 29 28 29 26
86 101 121 184 243 128 60 14 93 159 179 192 228 199 220 177 163 153 144 141 144 146 147 147 145 138 130 117 100 91 82 72 76 73 61 47 42 42 41 38 32 29 31 29
67 109 84 45 55 82 52 14 17 39 128 154 112 261 108 130 126 134 142 146 151 152 152 151 149 146 142 135 122 102 88 77 81 78 62 48 46 46 44 38 34 32 28 23
75 104 89 323 311 41 15 335 345 4 23 166 212 220 137 134 145 156 157 154 154 155 153 153 154 152 147 143 135 125 111 90 86 81 67 57 53 49 40 41 39 34 26 26
116 97 105 72 41 80 262 308 64 80 15 20 116 131 151 142 131 133 151 156 153 151 151 151 148 145 139 131 124 117 106 97 95 88 74 66 66 58 47 48 41 31 28 28
115 123 105 100 93 299 302 298 203 161 324 77 134 130 119 111 87 79 140 148 154 153 148 147 147 142 135 130 126 116 105 99 96 91 79 72 77 69 58 49 37 31 36 33
58 85 105 109 124 234 262 298 259 111 305 197 151 154 150 130 139 205 162 138 131 128 130 133 131 126 129 130 127 120 115 104 98 97 84 81 86 83 69 52 40 36 44 39
48 53 89 123 176 268 279 298 98 122 263 192 162 163 162 167 177 151 135 126 125 123 124 128 128 130 136 134 128 124 119 120 121 96 84 78 76 82 82 60 48 52 53 46
146 127 144 133 145 267 314 64 150 224 222 147 156 160 153 133 121 124 128 129 127 122 121 124 127 125 125 131 130 126 130 138 103 94 81 70 59 60 75 71 55 54 60 54
162 181 176 177 205 257 302 259 309 138 130 149 155 152 143 137 136 130 131 134 133 132 131 128 130 126 120 128 137 140 158 134 109 95 81 68 61 55 57 69 62 52 56 56
319 135 123 148 278 305 341 20 46 86 129 142 141 139 141 141 141 137 138 139 135 130 134 132 132 133 134 139 143 151 146 127 114 105 91 76 71 57 50 50 57 62 48 42
239 138 116 162 263 7 355 22 99 80 91 107 111 124 140 137 139 142 146 147 145 139 138 139 143 146 149 147 145 146 139 131 119 115 104 84 74 69 48 36 28 48 265 215
216 173 165 210 213 182 219 201 138 121 120 127 121 118 130 143 145 144 148 150 148 146 142 142 144 148 152 150 150 149 143 139 132 123 117 104 88 63 53 27 3 357 313 304
Height
1499 1505 1509 1507 1506 1507 1509 1514 1518 1517 1513 1517 1522 1525 1527 1528 1529 1532 1533 1535 1537 1540 1542 1543 1543 1544 1545 1546 1546 1545 1546 1546 1547 1548 1549 1549 1550 1550 1550 1550 1550 1550 1550 1549
1505 1506 1501 1500 1502 1505 1509 1514 1518 1517 1515 1519 1525 1528 1528 1529 1530 1531 1533 1535 1537 1540 1542 1543 1544 1545 1546 1546 1546 1546 1546 1546 1547 1548 1548 1548 1549 1549 1549 1549 1549 1549 1548 1548
1504 1501 1497 1499 1501 1505 1508 1512 1514 1518 1520 1521 1526 1533 1532 1531 1532 1533 1534 1536 1538 1540 1542 1544 1544 1544 1546 1546 1546 1546 1546 1546 1547 1547 1547 1548 1548 1548 1548 1548 1548 1547 1547 1547
1501 1497 1497 1498 1500 1502 1510 1503 1507 1512 1522 1532 1529 1542 1535 1531 1532 1533 1534 1536 1538 1540 1542 1544 1545 1546 1546 1546 1546 1546 1547 1547 1547 1547 1547 1547 1547 1547 1547 1546 1546 1546 1546 1545
1500 1496 1497 1499 1498 1498 1503 1502 1507 1514 1523 1532 1533 1539 1538 1532 1532 1531 1533 1535 1537 1540 1542 1544 1546 1547 1547 1547 1547 1547 1547 1547 1548 1548 1548 1548 1547 1546 1546 1546 1545 1545 1545 1544
1498 1495 1495 1496 1495 1496 1500 1507 1514 1522 1528 1541 1536 1539 1538 1532 1528 1528 1531 1534 1537 1539 1542 1545 1547 1548 1548 1548 1548 1548 1548 1548 1548 1548 1548 1547 1547 1546 1546 1545 1544 1544 1544 1543
1503 1498 1495 1495 1498 1500 1503 1517 1535 1537 1546 1544 1536 1538 1535 1525 1523 1524 1527 1532 1536 1539 1541 1544 1546 1548 1549 1549 1549 1548 1548 1549 1549 1548 1548 1547 1547 1546 1546 1545 1544 1544 1543 1542
1511 1513 1500 1497 1499 1503 1507 1513 1534 1543 1547 1545 1537 1538 1530 1523 1522 1523 1526 1531 1535 1538 1541 1544 1546 1547 1549 1549 1549 1549 1549 1549 1549 1549 1548 1548 1547 1546 1545 1544 1544 1543 1543 1541
1512 1512 1500 1498 1498 1500 1509 1517 1519 1533 1540 1546 1542 1534 1526 1524 1524 1525 1528 1531 1535 1538 1541 1544 1546 1547 1549 1550 1550 1550 1550 1550 1549 1549 1548 1548 1547 1546 1546 1544 1544 1543 1543 1541
1503 1510 1504 1501 1500 1503 1507 1515 1525 1533 1543 1546 1540 1535 1532 1526 1526 1527 1529 1531 1534 1538 1541 1544 1546 1548 1549 1550 1550 1551 1551 1551 1550 1550 1549 1549 1548 1547 1546 1545 1544 1543 1543 1542
1502 1512 1511 1508 1510 1512 1512 1518 1526 1534 1535 1544 1546 1539 1522 1521 1522 1525 1528 1531 1534 1537 1540 1544 1547 1548 1549 1550 1550 1551 1552 1552 1552 1551 1551 1550 1549 1548 1548 1546 1546 1545 1544 1543
1506 1515 1521 1515 1510 1509 1510 1515 1523 1531 1536 1539 1543 1540 1522 1520 1520 1523 1527 1531 1534 1538 1541 1544 1546 1548 1550 1551 1551 1552 1552 1553 1552 1552 1551 1551 1550 1549 1549 1548 1547 1546 1545 1544
1506 1517 1528 1526 1523 1515 1514 1515 1519 1526 1534 1540 1541 1535 1523 1521 1522 1525 1528 1531 1534 1537 1541 1544 1547 1548 1550 1551 1552 1553 1553 1553 1553 1553 1553 1553 1552 1551 1550 1550 1549 1548 1546 1545
1504 1517 1525 1530 1526 1519 1518 1517 1519 1524 1533 1535 1532 1528 1524 1524 1525 1527 1528 1531 1534 1537 1541 1544 1546 1548 1550 1552 1553 1554 1554 1554 1554 1555 1555 1554 1553 1553 1552 1551 1551 1549 1548 1547
1505 1518 1518 1518 1516 1516 1517 1517 1518 1521 1523 1528 1524 1524 1522 1523 1525 1527 1529 1532 1535 1538 1541 1544 1546 1549 1551 1552 1554 1554 1555 1555 1556 1556 1556 1555 1555 1554 1554 1553 1552 1551 1550 1548
1510 1518 1519 1520 1517 1517 1518 1518 1517 1518 1520 1522 1522 1524 1521 1523 1525 1528 1530 1532 1535 1538 1541 1544 1547 1549 1551 1553 1554 1555 1556 1556 1557 1557 1557 1557 1556 1556 1555 1555 1554 1553 1552 1551
1515 1519 1525 1527 1521 1518 1525 1521 1519 1519 1519 1520 1523 1523 1523 1524 1526 1528 1530 1532 1535 1538 1541 1544 1547 1549 1551 1553 1555 1556 1557 1558 1558 1559 1559 1558 1558 1558 1557 1557 1556 1555 1554 1553
1515 1522 1530 1530 1526 1532 1527 1518 1518 1519 1520 1519 1520 1521 1523 1524 1527 1529 1531 1533 1536 1538 1541 1544 1547 1549 1551 1554 1556 1557 1558 1559 1560 1560 1560 1560 1560 1560 1559 1559 1558 1557 1557 1556
1512 1520 1529 1535 1534 1531 1523 1518 1518 1520 1521 1519 1521 1523 1525 1526 1529 1531 1533 1534 1536 1538 1541 1544 1547 1549 1552 1554 1556 1558 1559 1560 1561 1562 1562 1562 1562 1562 1561 1561 1560 1559 1559 1558
1516 1518 1528 1533 1533 1535 1526 1518 1516 1520 1523 1520 1520 1522 1525 1527 1531 1532 1532 1534 1537 1539 1542 1545 1547 1550 1553 1555 1557 1559 1560 1562 1563 1563 1564 1564 1564 1564 1563 1563 1562 1562 1561 1560
1523 1526 1530 1533 1533 1529 1520 1517 1517 1526 1525 1518 1519 1521 1523 1525 1528 1529 1531 1534 1537 1540 1543 1546 1548 1551 1554 1556 1558 1560 1562 1563 1564 1565 1565 1565 1565 1565 1565 1565 1564 1564 1563 1563
1525 1528 1531 1534 1535 1532 1518 1517 1520 1520 1516 1516 1518 1520 1523 1525 1527 1529 1532 1535 1538 1541 1544 1547 1550 1553 1555 1557 1559 1561 1563 1565 1565 1566 1567 1567 1567 1567 1567 1567 1566 1566 1566 1565
1522 1523 1525 1527 1529 1521 1518 1517 1517 1516 1516 1517 1518 1521 1523 1525 1528 1530 1533 1537 1540 1543 1546 1549 1551 1554 1556 1559 1561 1562 1564 1566 1567 1567 1568 1568 1568 1568 1568 1568 1568 1568 1567 1567
1520 1519 1521 1522 1520 1519 1518 1518 1517 1517 1517 1518 1519 1521 1523 1526 1529 1532 1535 1538 1541 1544 1547 1550 1553 1555 1557 1560 1562 1564 1565 1567 1568 1569 1569 1570 1570 1570 1570 1570 1570 1570 1569 1569
1518 1519 1521 1521 1520 1519 1519 1519 1519 1519 1519 1519 1521 1523 1525 1527 1530 1533 1536 1539 1542 1545 1548 1551 1554 1556 1558 1561 1563 1565 1566 1568 1569 1570 1570 1571 1571 1571 1572 1572 1572 1571 1571 1571
1516 1517 1520 1521 1517 1518 1519 1519 1520 1520 1520 1521 1522 1524 1527 1529 1531 1534 1537 1540 1543 1546 1549 1552 1555 1557 1560 1562 1564 1566 1567 1568 1570 1571 1571 1572 1573 1573 1573 1573 1573 1573 1572 1572